www.pogodaiklimat.ru

Погода и климат >> Архив погоды >> Казахстан >> Жангизтобе


ПОГОДА в Жангизтобе

  • Прогноз погоды в Жангизтобе
  • Монитор погоды в Жангизтобе
  • Климат города

АРХИВ ПОГОДЫ в Жангизтобе

Время (UTC), дата Ветер
(напр.,м/с)
 
Видим.   Явления Облачность Т
(С)
Тd
(С)
f
(%)
Тe
(С)
Тes
(С)
Комфортность P
(гПа)
Po
(гПа)
Тmin
(С)
Tmax
(С)
R
(мм)
R24
(мм)
S
(см)
00 11.01 ЮВ 18-20
{23}
н/о 8/0
[Ac lent Ci ing]
-9.6 -17.8 51 -23 -23 1022.1 964.2
03 11.01 ЮВ 17-22
{26}
50 км 10/0
[Ac As]
-8.8 -17.8 48 -21 -21 1022.3 964.5 4
06 11.01 ЮВ 15-19
{25}
50 км 10/0
[As op]
-7.2 -15.7 51 -19 -19 1023.1 965.6 -11.9
09 11.01 Ю 5
{22}
50 км 10/0
[As op]
-1.0 -8.7 56 -7 -7 1024.2 968.0
12 11.01 ЮЗ 8
{18}
н/о 10/0
[As op]
-5.1 -11.3 62 -14 -14 1028.0 970.7
15 11.01 ЮЗ 5 н/о 6/0
[Ci fib]
-7.3 -12.6 66 -15 -15 1030.8 972.9 -0.6
18 11.01 ЮЗ 3 н/о 6/0
[Ac As Ci fib]
-9.4 -14.4 67 -15 -15 1032.1 973.7 -0.6
21 11.01 Ю 2 н/о ясно -11.8 -16.9 66 -16 -16 1032.8 973.8
00 12.01 Ю 3 н/о ясно -13.0 -17.8 67 -19 -19 1032.7 973.4
03 12.01 Ю 4 50 км 8/0
[Ac As]
-12.6 -17.6 66 -20 -20 1032.8 973.6 4
06 12.01 Ю 6 50 км 10/10 1000 м
[Sc]
-9.6 -15.3 63 -18 -18 1032.0 973.5 -13.6
09 12.01 Ю 15-20
{23}
50 км 8/6 1000 м
[Sc Ci fib]
-7.9 -14.5 59 -20 -20 1030.9 972.8
12 12.01 ЮВ 15-19
{21}
н/о 9/8 1000 м
[Sc Ci fib]
-9.4 -14.4 67 -22 -22 1032.8 974.3
15 12.01 ЮВ 5
{20}
н/о 9/6 1000 м
[Sc Ac As]
-10.2 -15.0 68 -18 -18 1032.5 973.9 -7.7
18 12.01 Ю 8
{18}
н/о 10/10 1000 м
[Sc]
-11.0 -15.6 69 -21 -21 1032.5 973.7 -7.7
21 12.01 ЮЗ 5 н/о 8/8 1000 м
[Sc]
-12.2 -16.6 70 -20 -20 1032.8 973.7
00 13.01 Ю 3 н/о 4/4 1000 м
[Sc]
-12.6 -16.9 70 -19 -19 1030.9 971.8
03 13.01 Ю 2 50 км 9/9 1000 м
[Sc]
-12.4 -16.7 70 -17 -17 1029.8 970.8 4
06 13.01 ЮВ 7 50 км 9/0
[Ac As]
-11.7 -15.7 72 -21 -21 1028.5 969.8 -13.1
09 13.01 ЮВ 7 50 км 10/0
[As op]
-11.0 -15.1 72 -20 -20 1026.0 967.6
12 13.01 Ю 7 н/о {снег} 10/0
[As op]
-11.5 -15.5 72 -21 -21 1025.3 966.8
15 13.01 Ю 5 н/о 6/0
[Ac trans]
-12.6 -16.3 74 -21 -21 1025.5 966.7 -10.7
18 13.01 ЮЗ 2 н/о 4/0
[Ac trans]
-14.1 -17.7 74 -19 -19 1025.8 966.7 -10.7 0.0
21 13.01 З 2 н/о 8/0
[Ac und]
-15.6 -19.0 75 -21 -21 1027.7 968.1
00 14.01 З 2 н/о слабый снег 10/0
[As op]
-21.8 -25.0 75 -28 -28 1033.4 972.1
03 14.01 штиль 0 50 км {снег} 10/0
[As trans]
-23.3 -26.2 77 -23 -23 1038.0 976.0 4
06 14.01 Ю 1 50 км {снег} 3/0
[Ac lent]
-20.7 -24.6 71 -24 -22 1038.4 977.0 -23.7 0.3
09 14.01 ЮВ 1 50 км ясно -18.3 -24.0 61 -21 -20 1038.1 977.3
12 14.01 ЮВ 2 н/о ясно -21.1 -25.4 68 -27 -27 1039.0 977.5
15 14.01 ЮВ 6 н/о ясно -22.5 -26.8 68 -34 -34 опасность
обморожения
1038.1 976.3 -17.7
18 14.01 Ю 8 н/о ясно -21.1 -25.4 68 -34 -34 опасность
обморожения
1035.6 974.3 -17.7
21 14.01 ЮВ 12
{19}
н/о ясно -21.9 -26.2 68 -37 -37 опасность
обморожения
1034.2 972.8
00 15.01 Ю 13-17
{19}
н/о ясно -21.7 -26.0 68 -37 -37 опасность
обморожения
1033.2 971.9
03 15.01 Ю 3 50 км ясно -20.9 -25.3 68 -29 -28 1033.2 972.1 4
06 15.01 Ю 5 50 км ясно -17.9 -23.4 62 -27 -26 1032.8 972.4 -22.7
09 15.01 Ю 5 50 км ясно -15.3 -21.1 61 -24 -24 1032.1 972.3
12 15.01 Ю 3 н/о ясно -18.1 -23.4 63 -25 -25 1034.0 973.5
15 15.01 Ю 3 н/о ясно -20.1 -24.5 68 -28 -28 1034.6 973.6 -14.9
18 15.01 Ю 4 н/о 6/0
[Ac As]
-18.9 -23.3 68 -28 -28 1034.0 973.3 -14.9
21 15.01 Ю 2 н/о 1/0
[Ac lent]
-19.1 -23.5 68 -25 -25 1033.2 972.5
00 16.01 Ю 2 н/о 6/0
[Ac As]
-19.3 -23.9 67 -25 -25 1032.5 971.8
03 16.01 Ю 5 50 км 9/0
[Ac As]
-18.1 -22.7 67 -28 -28 1032.3 971.9 4
06 16.01 ЮВ 3 50 км 6/0
[Ac As Ci fib]
-14.3 -20.0 62 -21 -19 1032.0 972.5 -20.2
09 16.01 ЮВ 5 50 км 9/0
[Ac As]
-13.7 -19.4 62 -22 -22 1031.6 972.2
12 16.01 Ю 5 н/о 9/0
[Ac As]
-14.7 -19.5 67 -23 -23 1032.5 972.9
15 16.01 Ю 16-19
{23}
н/о 8/0
[Ac As]
-16.5 -21.0 68 -31 -31 опасность
обморожения
1032.8 972.7 -13.3
18 16.01 Ю 17-20
{24}
н/о 10/0
[As op]
-18.4 -22.5 70 -34 -34 опасность
обморожения
1033.4 972.9 -13.3
21 16.01 Ю 16-19
{24}
н/о 10/0
[As op]
-18.9 -23.0 70 -35 -35 опасность
обморожения
1033.8 973.1
00 17.01 Ю 16 н/о 10/0
[As op]
-18.9 -23.0 70 -35 -35 опасность
обморожения
1033.5 972.8
03 17.01 Ю 10
{19}
50 км 6/0
[Ac As]
-18.2 -22.3 70 -31 -31 опасность
обморожения
1033.7 973.2 4
06 17.01 Ю 7 50 км 3/0
[Ac lent]
-14.7 -20.0 64 -25 -24 1033.8 974.1 -19.3
09 17.01 Ю 6 50 км 8/0
[Ac lent Ci sp]
-13.3 -18.9 63 -22 -22 1033.9 974.5
12 17.01 Ю 5 н/о 3/0
[Ac lent]
-14.8 -19.4 68 -24 -24 1035.0 975.2
15 17.01 Ю 7 н/о 4/0
[Ac lent]
-15.6 -19.8 70 -26 -26 1035.9 975.9 -12.9
18 17.01 Ю 6 н/о 6/0
[Ac lent Ci fib]
-16.9 -20.9 71 -27 -27 1037.1 976.7 -12.9

 

Местоположение метеостанции Жангизтобе (Восточно-Казахстанская область, Казахстан): широта 49.22 долгота 81.22 высота над уровнем моря 455 м.

В архиве по умолчанию представлена погода в Жангизтобе за последнюю неделю. Архивные данные за месяц целиком и за предыдущие месяцы, начиная с января 2011 года, Вы можете получить, выбрав интересующий диапазон дат из раскрывающегося списка и нажав кнопку "Ввод!".

Внимание! Время в таблицах - всемирное. Для получения местного времени необходимо прибавить поправку, которая в Жангизтобе равна 6 ч.

Смотрите также архив погоды в соседних городах и на ближайших метеорологических станциях:

Погода в Кентерлау (Восточно-Казахстанская область, Казахстан) (29 км)
Погода в Шаре (Восточно-Казахстанская область, Казахстан) (42 км)
Погода в Шалабае (Восточно-Казахстанская область, Казахстан) (57 км)
Погода в Кокпектах (Восточно-Казахстанская область, Казахстан) (99 км)
Погода в Кайсенова (Восточно-Казахстанская область, Казахстан) (117 км)
Погода в Таврии (Восточно-Казахстанская область, Казахстан) (121 км)
Погода в Первомайском (Восточно-Казахстанская область, Казахстан) (130 км)
Погода в Шульбинске (Восточно-Казахстанская область, Казахстан) (130 км)
Погода в Глубоком (Восточно-Казахстанская область, Казахстан) (130 км)
Погода в Усть-Каменогорске (Восточно-Казахстанская область, Казахстан) (131 км)

Пояснения к столбцам:

Ветер - указаны скорость ветра в м/с - средняя за 10 мин, порывы в срок и между сроками (в фигурных скобках) и направление, откуда дует ветер: С - северный, СВ - северо-восточный, В - восточный, ЮВ - юго-восточный, Ю - южный, ЮЗ - юго-западный, З - западный, СЗ - северо-западный.
Видимость - горизонтальная дальность видимости в метрах или километрах. При видимости от 1 до 10 км при отсутствии осадков обычно наблюдается дымка, при ухудшении видимости до 1 км и менее - туман. В сухую погоду видимость может ухудшаться дымом, пылью или мглою.
Явления - указаны атмосферные явления, наблюдавшиеся в срок или в последний час перед сроком; фигурными скобками обозначены явления, наблюдавшиеся между сроками (за 1-3 часа до срока); квадратными скобками обозначены град или гололедные отложения с указанием их диаметра в мм.
Облачность - указаны через наклонную черту общая и нижняя облачность в баллах и высота нижней границы облаков в метрах; квадратными скобками обозначены формы облаков: Ci - перистые, Cs - перисто-слоистые, Cc - перисто-кучевые, Ac - высококучевые, As - высокослоистые, Sc - слоисто-кучевые, Ns - слоисто-дождевые, Cu - кучевые, Cb - кучево-дождевые. Подробнее классификацию облаков см. в Атласе облаков (PDF).
T - Температура воздуха - температура, измеренная на высоте 2 м над землей.
Td - Температура точки росы - температура, при понижении до которой содержащийся в воздухе водяной пар достигнет насыщения.
f - Относительная влажность воздуха - влажноcть воздуха, измеренная на высоте 2 м над землей.
Te - Эффективная температура - температура, которую ощущает одетый по сезону человек в тени. Характеристика душности погоды. При расчете учитывается влияние влажности воздуха и скорости ветра на теплоощущения человека.
Tes - Эффективная температура на солнце - температура, которую ощущает человек, с поправкой на солнечный нагрев. Характеристика знойности погоды. Зависит от высоты солнца над горизонтом, облачности и скорости ветра. Ночью, в пасмурную погоду, а также при ветре 12 м/с и более поправка равна нулю.
P - Атмосферное давление - приведенное к уровню моря атмосферное давление.
Po - Атмосферное давление - измеренное на уровне метеостанции атмосферное давление.
Tmin - Минимальная температура - минимум температуры воздуха на высоте 2 м над землей.
Tmax - Максимальная температура - максимум температуры воздуха на высоте 2 м над землей.
R - Количество осадков - Количество выпавших осадков за период времени, мм. При наведении курсора мыши на число - период времени, за который выпало указанное количество осадков.
R24 - Количество осадков - Количество выпавших осадков за 24 часа, мм.
S - Снежный покров - Высота снежного покрова, см. При наведении курсора мыши на число - состояние снежного покрова и степень покрытия местности в баллах.